Omaha Offutt, NE

9:25 AM CDT on June 26, 2017 (GMT -0500)
Offutt Air Force Base

Weather History for KOFF - June, 2012

Change the Weather History Date:

Sunday, June 3, 2012

  Actual Average Record
Temperature  
Mean Temperature 72 °F -  
Max Temperature 90 °F 75 °F 94 °F (2011)
Min Temperature 54 °F 57 °F 41 °F (1998)
Cooling Degree Days 6    
Growing Degree Days 22 (Base 50)    
Moisture  
Dew Point 56 °F    
Average Humidity 54    
Maximum Humidity 82    
Minimum Humidity 35    
Precipitation  
Precipitation 0.00 in - - ()
Sea Level Pressure  
Sea Level Pressure 29.75 in    
Wind  
Wind Speed 5 mph (SSE)    
Max Wind Speed 15 mph    
Max Gust Speed 20 mph    
Visibility 10 miles    
Events      
Averages and records for this station are not official NWS values.
T = Trace of Precipitation, MM = Missing Value Source: NWS Daily Summary

Daily Weather History Graph

Daily Weather History Graph

Search for Another Location

Airport or City:

Trip Planner

Search our weather history database for the weather conditions in past years. The results will help you decide how hot, cold, wet, or windy it might be!

Date:

Astronomy

Jun. 03, 2012 Rise Set
Actual Time 5:52 AM CDT 8:51 PM CDT
Civil Twilight 5:19 AM CDT 9:24 PM CDT
Nautical Twilight 4:37 AM CDT 10:07 PM CDT
Astronomical Twilight 3:48 AM CDT 10:56 PM CDT
Moon 8:18 PM CDT (6/3) 5:02 AM CDT (6/3)
Length of Visible Light 16h 05m
Length of Day
14h 59m
Waxing Gibbous, 99% of the Moon is Illuminated
Jun 3
Waxing Gibbous
Jun 4
Full
Jun 11
Last Quarter
Jun 19
New
Jun 26
First Quarter

Hourly Weather History & Observations

Time (CDT) Temp. Heat Index Dew Point Humidity Pressure Visibility Wind Dir Wind Speed Gust Speed Precip Events Conditions
12:55 AM 55.4 °F - 49.3 °F 80% 29.81 in 10.0 mi Calm Calm - N/A   Clear
1:55 AM 54.9 °F - 49.5 °F 82% 29.79 in 10.0 mi Calm Calm - N/A   Clear
2:55 AM 57.9 °F - 46.6 °F 66% 29.78 in 10.0 mi South 3.5 mph - N/A   Clear
3:55 AM 55.2 °F - 48.0 °F 77% 29.79 in 10.0 mi East 3.5 mph - N/A   Clear
4:55 AM 59.9 °F - 46.8 °F 62% 29.78 in 10.0 mi SE 4.6 mph - N/A   Clear
5:55 AM 61.0 °F - 45.9 °F 58% 29.78 in 10.0 mi SE 6.9 mph - N/A   Clear
6:55 AM 61.7 °F - 48.7 °F 62% 29.78 in 10.0 mi ESE 8.1 mph - N/A   Clear
7:55 AM 65.8 °F - 50.2 °F 57% 29.80 in 10.0 mi ESE 9.2 mph - N/A   Clear
8:55 AM 70.2 °F - 53.4 °F 55% 29.81 in 10.0 mi ESE 6.9 mph - N/A   Clear
9:55 AM 73.9 °F - 56.5 °F 54% 29.80 in 10.0 mi Variable 4.6 mph - N/A   Partly Cloudy
10:55 AM 79.7 °F - 59.2 °F 49% 29.77 in 10.0 mi SE 10.4 mph - N/A   Partly Cloudy
11:55 AM 83.3 °F 83.4 °F 59.9 °F 45% 29.75 in 10.0 mi SE 11.5 mph - N/A   Clear
12:55 PM 84.7 °F 84.8 °F 60.8 °F 44% 29.75 in 10.0 mi SE 10.4 mph - N/A   Partly Cloudy
1:55 PM 87.8 °F 86.9 °F 58.3 °F 37% 29.73 in 10.0 mi South 13.8 mph - N/A   Scattered Clouds
2:55 PM 88.5 °F 87.8 °F 59.2 °F 37% 29.71 in 10.0 mi South 15.0 mph - N/A   Partly Cloudy
3:55 PM 89.1 °F 88.0 °F 57.7 °F 35% 29.71 in 10.0 mi SSW 12.7 mph 19.6 mph N/A   Clear
4:55 PM 87.8 °F 88.5 °F 62.4 °F 43% 29.71 in 10.0 mi South 9.2 mph - N/A   Clear
5:55 PM 86.9 °F 86.5 °F 59.5 °F 40% 29.70 in 10.0 mi SSW 9.2 mph - N/A   Clear
6:55 PM 86.0 °F 85.9 °F 60.4 °F 42% 29.71 in 10.0 mi South 11.5 mph - N/A   Clear
7:55 PM 84.9 °F 85.0 °F 60.6 °F 44% 29.71 in 10.0 mi Variable 6.9 mph - N/A   Clear
8:55 PM 81.5 °F 82.1 °F 60.6 °F 49% 29.72 in 10.0 mi South 6.9 mph - N/A   Clear
9:55 PM 76.6 °F - 60.6 °F 58% 29.73 in 10.0 mi South 5.8 mph - N/A   Clear
10:55 PM 74.8 °F - 61.3 °F 63% 29.74 in 10.0 mi Calm Calm - N/A   Clear
11:55 PM 73.2 °F - 62.1 °F 68% 29.75 in 10.0 mi Calm Calm - N/A   Clear